Regional Weather Roundup
Issued by NWS

Home | Current Version | Previous Version | Graphics & Text | Print | Product List | Glossary On
Versions: 1 2 3 4 5 6 7 8 9 10 11 12 13 14 15 16 17 18 19 20 21 22 23 24 25 26 27 28 29 30 31 32 33 34 35 36 37 38 39 40 41 42 43 44 45 46 47 48 49 50
000
ASUS45 KTFX 280719
RWRMT
MONTANA REGIONAL WEATHER ROUNDUP
NATIONAL WEATHER SERVICE GREAT FALLS MT
100 AM MDT FRI AUG 28 2015

NOTE: "FAIR" INDICATES FEW OR NO CLOUDS BELOW 12000 FEET WITH NO
SIGNIFICANT WEATHER AND/OR OBSTRUCTIONS TO VISIBILITY.

MTZ001>007-043-280800-
WEST OF THE DIVIDE

CITY           SKY/WX    TMP DP  RH WIND       PRES   REMARKS
KALISPELL      CLOUDY    56  43  61 NE6       30.01F HAZE
MISSOULA       CLOUDY    60  40  47 CALM      30.09R HAZE
BUTTE          CLOUDY    53  47  79 CALM      30.24S
MULLAN PASS    CLEAR     61  35  37 SW9       30.22F
DEER LODGE       N/A     57  43  58 CALM      30.21R
EUREKA           N/A     70  39  32 SE5       29.99S
HAMILTON         N/A     61  43  51 S6        30.12R
LIBBY            N/A     63  41  45 CALM      30.00F
PLAINS           N/A     58  40  51 CALM      30.04S
RONAN            N/A     58  43  57 CALM      30.10S
$$

MTZ008-052>055-280800-
SOUTHWEST MONTANA

CITY           SKY/WX    TMP DP  RH WIND       PRES   REMARKS
BOZEMAN        MOCLDY    62  48  60 CALM      30.15R
DILLON         PTCLDY    59  44  57 S9        30.20R
W YELLOWSTONE  PTCLDY    45  41  87 CALM      30.33S
THREE FORKS      N/A     62  51  67 CALM      30.13R
TWIN BRIDGES     N/A     58  41  53 N3        30.16S
$$

MTZ009-010-012-014-046-048-049-054-280800-
EAST SLOPES AND CENTRAL MONTANA

CITY           SKY/WX    TMP DP  RH WIND       PRES   REMARKS
CUT BANK       CLOUDY    69  39  33 W13       30.01S HAZE
GREAT FALLS    CLOUDY    66  36  32 SW10      30.02S HAZE
MALMSTROM AFB  CLOUDY    64  35  34 SW9       30.01S
HELENA         CLOUDY    67  41  38 NE3       30.10S SMOKE
CONRAD           N/A     69  41  36 SW2       30.03S
$$

MTZ011-013-016-021-045-047-050-051-280800-
NORTH CENTRAL MONTANA

CITY           SKY/WX    TMP DP  RH WIND       PRES   REMARKS
HAVRE          CLOUDY    64  44  48 W5        29.91S
LEWISTOWN      CLOUDY    60  44  55 SE3       30.05S HAZE
N BAR RANCH    PTSUNNY   59  39  47 W3        30.08S
CHINOOK          N/A     59  52  77 CALM      29.90S
FORT BENTON      N/A     64  36  34 S5        29.97S
$$

MTZ017>020-022>027-061-062-280800-
NORTHEAST MONTANA

CITY           SKY/WX    TMP DP  RH WIND       PRES   REMARKS
GLASGOW        PTCLDY    65  54  67 SW3       29.87S
JORDAN           N/A     64  43  46 W6        29.92S
SIDNEY         PTCLDY    63  55  77 S3        29.85F
WOLF POINT     CLEAR     61  55  81 S3        29.85F
MALTA            N/A     60  50  69 CALM      29.86S
PLENTYWOOD       N/A     70  54  56 CALM      29.86S
POPLAR           N/A     66  55  68 CALM      29.86S
SCOBEY           N/A     59  48  66 CALM      29.88F
$$

MTZ028>42-056>058-280800-
SOUTHCENTRAL AND SOUTHEAST MONTANA

CITY           SKY/WX    TMP DP  RH WIND       PRES   REMARKS
BAKER          MOCLDY    62  57  83 N3        29.95S
BILLINGS       MOCLDY    70  44  39 SW18      30.05R
LIVINGSTON     PTCLDY    67  43  41 W9        30.12F
MILES CITY     MOCLDY    74  46  36 W7        29.93S
FORSYTH          N/A     73  46  38 SW5       29.95S
LAUREL           N/A     69  44  40 SW12      30.05R
ROUNDUP          N/A     67  41  38 S6        29.93S
$$

REGIONAL REPORTS...DAKOTAS

CITY           SKY/WX    TMP DP  RH WIND       PRES   REMARKS
WILLISTON      CLEAR     67  62  84 S5        29.85F
MINOT          PTCLDY    72  60  66 SW16      29.82F
DICKINSON      MOCLDY    63  56  78 S12       29.90F
BEACH          CLOUDY    59  59 100 S8        29.93R
CROSBY           N/A     66  66 100 SW13      29.83R
TIOGA            N/A     64  64 100 SW5       29.88S
BISMARCK       CLEAR     64  59  83 VRB3      29.92S
GRAND FORKS    CLEAR     64  62  93 S6        29.86S
FARGO          CLEAR     68  64  87 S9        29.88F
BUFFALO SD       N/A     62  55  77 S7        29.92S
RAPID CITY     CLEAR     61  58  90 SW7       30.00F
$$

REGIONAL REPORTS...WYOMING/IDAHO/WASHINGTON

CITY           SKY/WX    TMP DP  RH WIND       PRES   REMARKS
GILLETTE       PTCLDY    66  47  50 SW14      30.09S
SHERIDAN       MOCLDY    69  43  38 SE5       30.06F
BUFFALO WY     PTCLDY    66  40  38 W10       30.14F
CODY           MOCLDY    55  45  67 CALM      30.18S
YELLOWSTONE LA   N/A     41  39  93 NW3       30.42F
IDAHO FALLS    CLEAR     62  42  47 S7        30.17R
SALMON         CLOUDY    63  39  42 N3        30.14S
BOISE          PTCLDY    76  36  23 SE9       30.01F
SPOKANE        MOCLDY    71  40  32 SE7       29.98F
$$

REGIONAL REPORTS...ALBERTA

CITY           SKY/WX    TMP DP  RH WIND       PRES   REMARKS
EDMONTON       CLEAR     59  50  72 SW6       29.77F
CALGARY        PTCLDY    57  43  58 N3        29.91S SMOKE
LETHBRIDGE     CLOUDY    70  41  35 SW14G20   29.92S HAZE
MEDICINE HAT   CLOUDY    61  45  55 SW7       29.85S HAZE
WATERTON GATE    N/A     66  36  32 SW8G22      N/A
CARDSTON         N/A     66  37  34 SW5         N/A
MILK RIVER       N/A     61  41  48 NW14        N/A
ONEFOUR          N/A     66  36  32 NW10        N/A
$$

REGIONAL REPORTS...SASKATCHEWAN

CITY           SKY/WX    TMP DP  RH WIND       PRES   REMARKS
SWIFT CURRENT  CLEAR     59  52  77 SW8       29.85F HAZE
REGINA         PTCLDY    57  55  94 NW6       29.81R
SASKATOON      PTCLDY    55  55 100 W5        29.82F
CYPRESS HILLS    N/A     64  36  34 W5          N/A
VAL MARIE        N/A     48  45  87 NE2         N/A
ROCKGLEN         N/A     61  50  67 SW5         N/A
ASSINIBOIA       N/A     57  55  94 S5          N/A
$$


USA.gov is the U.S. government's official web portal to all federal, state and local government web resources and services.